• Join FlightAware (Why Join?)
  • Login
  • US Flag 
02:02AM EDT


 

Airport Tracker/Info


-or-


 

Live Flight TrackerFlight Track Log ✈ N71ST ✈ 27-Apr-2013 ✈ KSFQ - KPDK

Flight Track Log - Related Links

Times and Time Zones

All times are in EDT time to prevent confusion due to time zone crossing. See the N71ST flight status page for this flight to view local times or setup timezone preferences in your user account.

Time Position Orientation Groundspeed Altitude Reporting Facility
EDT Latitude Longitude Course Direction KTS MPH feet Rate Location/Type
07:57PM 36.6922 -76.5892 360° North 96 110 900  Level Washington Center
07:58PM 36.6922 -76.5892 50° Northeast 90 104 1,800 720 Climbing Washington Center
07:59PM 36.7047 -76.6100 307° West 85 98 2,400 720 Climbing Washington Center
08:00PM 36.7022 -76.6411 264° West 73 84 3,200 840 Climbing Washington Center
08:01PM 36.7019 -76.6722 269° West 90 104 4,100 780 Climbing Washington Center
08:02PM 36.6997 -76.7033 265° West 90 104 4,800 660 Climbing Washington Center
08:03PM 36.7014 -76.7317 274° West 90 104 5,500 600 Climbing Washington Center
08:04PM 36.6992 -76.7628 265° West 90 104 6,000 240 Climbing Washington Center
08:05PM 36.6986 -76.7992 269° West 95 109 6,000  Level Washington Center
08:06PM 36.7003 -76.8406 273° West 107 123 6,000  Level Washington Center
08:07PM 36.7042 -76.8822 277° West 124 143 6,100  Climbing Washington Center
08:08PM 36.7078 -76.9236 276° West 124 143 6,000 -60 Descending Washington Center
08:09PM 36.7114 -76.9650 276° West 124 143 6,000  Level Washington Center
08:10PM 36.7089 -77.0092 266° West 124 143 6,100  Climbing Washington Center
08:11PM 36.6958 -77.0503 248° West 124 143 6,100  Level Washington Center
08:12PM 36.6789 -77.0864 240° Southwest 129 148 6,100  Level Washington Center
08:13PM 36.6617 -77.1247 241° Southwest 129 148 6,100 -60 Level Washington Center
08:14PM 36.6464 -77.1633 244° Southwest 134 154 6,000 -120 Descending Washington Center
08:15PM 36.6272 -77.2017 238° Southwest 134 154 5,900  Descending Washington Center
08:16PM 36.6100 -77.2375 239° Southwest 134 154 6,000  Climbing Washington Center
08:17PM 36.5928 -77.2761 241° Southwest 134 154 6,000  Level Washington Center
08:18PM 36.5736 -77.3119 236° Southwest 134 154 6,000  Level Washington Center
08:19PM 36.5564 -77.3503 241° Southwest 134 154 6,000  Level Washington Center
08:20PM 36.5389 -77.3886 240° Southwest 134 154 6,000 -60 Level Washington Center
08:21PM 36.5239 -77.4269 244° Southwest 134 154 5,900  Descending Washington Center
08:22PM 36.5067 -77.4628 239° Southwest 134 154 6,000  Climbing Washington Center
08:23PM 36.4872 -77.5036 239° Southwest 134 154 5,900 -60 Descending Washington Center
08:24PM 36.4700 -77.5369 237° Southwest 134 154 5,900  Level Washington Center
08:25PM 36.4547 -77.5778 245° Southwest 134 154 5,900  Level Washington Center
08:26PM 36.4353 -77.6108 234° Southwest 134 154 5,900  Level Washington Center
08:27PM 36.4136 -77.6542 238° Southwest 134 154 5,900  Level Washington Center
08:28PM 36.3964 -77.6925 241° Southwest 134 154 5,900  Level Washington Center
08:29PM 36.3769 -77.7256 234° Southwest 134 154 5,900  Level Washington Center
08:30PM 36.3597 -77.7661 242° Southwest 134 154 5,900  Level Washington Center
08:31PM 36.3442 -77.8044 243° Southwest 134 154 5,900  Level Washington Center
08:32PM 36.3247 -77.8400 236° Southwest 134 154 5,900 -60 Level Washington Center
08:33PM 36.3075 -77.8783 241° Southwest 134 154 5,800 -60 Descending Washington Center
08:34PM 36.2900 -77.9164 240° Southwest 134 154 5,800  Level Washington Center
08:35PM 36.2706 -77.9544 238° Southwest 134 154 5,800  Level Washington Center
08:35PM 36.2597 -77.9722 233° Southwest 128 147 5,800  Level Washington Center
08:36PM 36.2531 -77.9925 248° West 134 154 5,800 60 Level Washington Center
08:37PM 36.2356 -78.0306 240° Southwest 134 154 5,900 60 Climbing Washington Center
08:38PM 36.2181 -78.0661 239° Southwest 134 154 6,000  Climbing Washington Center
08:39PM 36.1986 -78.1042 238° Southwest 134 154 6,000  Level Washington Center
08:40PM 36.1833 -78.1397 242° Southwest 139 160 6,000  Level Washington Center
08:41PM 36.1614 -78.1828 238° Southwest 139 160 6,000  Level Washington Center
08:41PM 36.1486 -78.2028 232° Southwest 129 148 6,000  Level Washington Center
08:42PM 36.1461 -78.2131 253° West 134 154 6,000  Level Washington Center
08:42PM 36.1331 -78.2436 242° Southwest 128 147 6,000  Level Washington Center
08:43PM 36.1264 -78.2561 237° Southwest 134 154 6,000  Level Washington Center
08:43PM 36.1114 -78.2789 231° Southwest 129 148 6,000  Level Washington Center
08:44PM 36.1089 -78.2914 256° West 134 154 6,000  Level Washington Center
08:44PM 36.0978 -78.3194 244° Southwest 129 148 6,000  Level Washington Center
08:45PM 36.0914 -78.3319 238° Southwest 139 160 6,000  Level Washington Center
08:45PM 36.0783 -78.3547 235° Southwest 128 147 6,000 -120 Level Washington Center
08:46PM 36.0606 -78.3953 242° Southwest 127 146 5,900 -60 Descending Washington Center
08:47PM 36.0411 -78.4306 236° Southwest 128 147 5,900  Level Washington Center
08:48PM 36.0214 -78.4708 239° Southwest 128 147 5,900  Level Washington Center
08:49PM 36.0036 -78.5089 240° Southwest 128 147 6,000  Climbing Washington Center
08:50PM 35.9861 -78.5492 242° Southwest 129 148 6,000  Level Washington Center
08:52PM 35.9642 -78.5894 236° Southwest 129 148 6,000  Level Washington Center
08:53PM 35.9467 -78.6247 239° Southwest 129 148 6,000  Level Washington Center
08:54PM 35.9267 -78.6675 240° Southwest 130 150 6,000  Level Washington Center
08:55PM 35.9131 -78.7081 248° West 130 150 6,000  Level Washington Center
08:56PM 35.8933 -78.7431 235° Southwest 130 150 6,000  Level Washington Center
08:57PM 35.8778 -78.7861 246° West 133 153 6,000  Level Washington Center
08:58PM 35.8456 -78.8156 217° Southwest 147 169 6,000  Level Washington Center
08:59PM 35.8197 -78.8453 223° Southwest 129 148 6,000  Level Washington Center
09:00PM 35.7897 -78.8722 216° Southwest 130 150 6,000  Level Washington Center
09:01PM 35.7639 -78.9017 223° Southwest 132 152 6,000 -60 Level Washington Center
09:02PM 35.7400 -78.9367 230° Southwest 134 154 5,900 -60 Descending Washington Center
09:03PM 35.7119 -78.9686 223° Southwest 132 152 5,900  Level Washington Center
09:05PM 35.6703 -79.0208 226° Southwest  Level FlightAware Approximate
09:12PM 35.5113 -79.2193 225° Southwest  Level FlightAware Approximate
09:13PM 35.4882 -79.2472 224° Southwest  Level FlightAware Approximate
09:14PM 35.4648 -79.2747 224° Southwest  Level FlightAware Approximate
09:15PM 35.4413 -79.3021 224° Southwest  Level FlightAware Approximate
09:16PM 35.4179 -79.3295 224° Southwest  Level FlightAware Approximate
09:17PM 35.3945 -79.3569 224° Southwest  Level FlightAware Approximate
09:18PM 35.3710 -79.3843 224° Southwest  Level FlightAware Approximate
09:19PM 35.3475 -79.4117 224° Southwest  Level FlightAware Approximate
09:20PM 35.3241 -79.4390 224° Southwest  Level FlightAware Approximate
09:21PM 35.3006 -79.4664 224° Southwest  Level FlightAware Approximate
09:22PM 35.2771 -79.4937 224° Southwest  Level FlightAware Approximate
09:23PM 35.2537 -79.5210 224° Southwest  Level FlightAware Approximate
09:24PM 35.2302 -79.5483 224° Southwest  Level FlightAware Approximate
09:25PM 35.2067 -79.5756 224° Southwest  Level FlightAware Approximate
09:26PM 35.1910 -79.6095 247° West  Level FlightAware Approximate
09:27PM 35.1784 -79.6460 247° West  Level FlightAware Approximate
09:28PM 35.1659 -79.6825 247° West  Level FlightAware Approximate
09:29PM 35.1533 -79.7190 247° West  Level FlightAware Approximate
09:30PM 35.1407 -79.7555 247° West  Level FlightAware Approximate
09:31PM 35.1281 -79.7919 247° West  Level FlightAware Approximate
09:32PM 35.1154 -79.8284 247° West  Level FlightAware Approximate
09:33PM 35.1028 -79.8648 247° West  Level FlightAware Approximate
09:34PM 35.0901 -79.9013 247° West  Level FlightAware Approximate
09:34PM 35.0847 -79.9497 246° West 137 158 6,200  Level Atlanta Center
09:35PM 35.0775 -79.9377 247° West  Level FlightAware Approximate
09:35PM 35.0947 -80.0025 283° West 140 161 6,000  Level Atlanta Center
09:36PM 35.0648 -79.9741 247° West  Level FlightAware Approximate
09:36PM 35.1006 -80.0481 279° West 134 154 6,100  Level Atlanta Center
09:37PM 35.0522 -80.0105 247° West  Level FlightAware Approximate
09:37PM 35.1081 -80.0883 283° West 128 147 6,100  Level Atlanta Center
09:38PM 35.0390 -80.0467 246° West  Level FlightAware Approximate
09:38PM 35.1094 -80.1339 272° West 128 147 6,100  Level Atlanta Center
09:39PM 35.0258 -80.0828 246° West  Level FlightAware Approximate
09:39PM 35.1025 -80.1747 258° West 130 150 6,200  Level Atlanta Center
09:40PM 35.0933 -80.2183 256° West 129 148 6,100 -60 Descending Atlanta Center
09:41PM 35.0864 -80.2619 259° West 128 147 6,100  Level Atlanta Center
09:42PM 35.0731 -80.3031 248° West 124 143 6,100  Level Atlanta Center
09:43PM 35.0617 -80.3442 251° West 124 143 6,100  Level Atlanta Center
09:44PM 35.0483 -80.3828 247° West 126 145 6,100 -60 Level Atlanta Center
09:45PM 35.0411 -80.4239 258° West 126 145 6,000  Descending Atlanta Center
09:46PM 35.0342 -80.4697 260° West 129 148 6,100  Climbing Atlanta Center
09:47PM 35.0250 -80.5108 255° West 129 148 6,100  Level Atlanta Center
09:48PM 35.0158 -80.5542 256° West 128 147 6,100  Level Atlanta Center
09:49PM 35.0083 -80.5900 256° West 128 147 6,200  Climbing Atlanta Center
09:50PM 34.9992 -80.6361 256° West 127 146 6,200  Level Atlanta Center
09:51PM 34.9794 -80.6722 236° Southwest 127 146 6,200 -60 Level Atlanta Center
09:52PM 34.9533 -80.7064 227° Southwest 135 155 6,100 -60 Descending Atlanta Center
09:53PM 34.9311 -80.7378 229° Southwest 127 146 6,100 -60 Level Atlanta Center
09:54PM 34.9069 -80.7689 227° Southwest 125 144 6,000 -60 Descending Atlanta Center
09:55PM 34.8869 -80.8053 236° Southwest 126 145 6,000  Level Atlanta Center
09:56PM 34.8669 -80.8389 234° Southwest 127 146 6,000  Level Atlanta Center
09:57PM 34.8492 -80.8775 241° Southwest 127 146 6,000  Level Atlanta Center
09:58PM 34.8294 -80.9164 238° Southwest 128 147 6,000  Level Atlanta Center
09:59PM 34.8075 -80.9550 235° Southwest 130 150 6,100  Climbing Atlanta Center
10:00PM 34.7894 -80.9886 237° Southwest 129 148 6,100  Level Atlanta Center
10:01PM 34.7694 -81.0247 236° Southwest 129 148 6,100  Level Atlanta Center
10:02PM 34.7475 -81.0608 234° Southwest 129 148 6,100  Level Atlanta Center
10:03PM 34.7272 -81.0944 234° Southwest 126 145 6,100 -60 Level Atlanta Center
10:04PM 34.7094 -81.1331 241° Southwest 128 147 6,000 -60 Descending Atlanta Center
10:06PM 34.6897 -81.1767 241° Southwest 127 146 6,000  Level Atlanta Center
10:07PM 34.6725 -81.2104 238° Southwest  Level FlightAware Approximate
10:14PM 34.5324 -81.4308 235° Southwest  Level FlightAware Approximate
10:15PM 34.5138 -81.4634 235° Southwest  Level FlightAware Approximate
10:16PM 34.4952 -81.4959 235° Southwest  Level FlightAware Approximate
10:17PM 34.4804 -81.5305 256° West  Level FlightAware Approximate
10:18PM 34.4723 -81.5689 256° West  Level FlightAware Approximate
10:19PM 34.4641 -81.6072 256° West  Level FlightAware Approximate
10:20PM 34.4559 -81.6456 256° West  Level FlightAware Approximate
10:21PM 34.4477 -81.6839 255° West  Level FlightAware Approximate
10:22PM 34.4395 -81.7222 255° West  Level FlightAware Approximate
10:23PM 34.4314 -81.7605 255° West  Level FlightAware Approximate
10:24PM 34.4231 -81.7988 255° West  Level FlightAware Approximate
10:25PM 34.4149 -81.8371 255° West  Level FlightAware Approximate
10:26PM 34.4067 -81.8754 255° West  Level FlightAware Approximate
10:27PM 34.3984 -81.9137 255° West  Level FlightAware Approximate
10:28PM 34.3901 -81.9519 255° West  Level FlightAware Approximate
10:29PM 34.3819 -81.9902 255° West  Level FlightAware Approximate
10:30PM 34.3736 -82.0285 255° West  Level FlightAware Approximate
10:31PM 34.3653 -82.0667 255° West  Level FlightAware Approximate
10:31PM 34.3728 -82.1689 255° West 140 161 6,000  Level Atlanta Center
10:32PM 34.3570 -82.1049 255° West  Level FlightAware Approximate
10:32PM 34.3650 -82.2094 257° West 140 161 5,900  Level Atlanta Center
10:33PM 34.3487 -82.1432 255° West  Level FlightAware Approximate
10:33PM 34.3531 -82.2497 250° West 135 155 6,000  Level Atlanta Center
10:34PM 34.3403 -82.1814 255° West  Level FlightAware Approximate
10:34PM 34.3453 -82.2903 257° West 129 148 6,000  Level Atlanta Center
10:35PM 34.3320 -82.2196 255° West  Level FlightAware Approximate
10:35PM 34.3375 -82.3256 255° West 129 148 6,000  Level Atlanta Center
10:36PM 34.3278 -82.3711 256° West 121 139 6,000  Level Atlanta Center
10:37PM 34.3219 -82.4114 260° West 126 145 6,000  Level Atlanta Center
10:38PM 34.3119 -82.4519 253° West 126 145 6,000 -60 Level Atlanta Center
10:39PM 34.3042 -82.4922 257° West 126 145 5,900  Descending Atlanta Center
10:40PM 34.2983 -82.5300 259° West 126 145 6,000  Climbing Atlanta Center
10:41PM 34.2883 -82.5706 253° West 126 145 6,000  Level Atlanta Center
10:42PM 34.2806 -82.6083 256° West 126 145 6,000  Level Atlanta Center
10:43PM 34.2728 -82.6486 257° West 126 145 6,000  Level Atlanta Center
10:44PM 34.2647 -82.6867 256° West 126 145 6,000  Level Atlanta Center
10:45PM 34.2569 -82.7244 256° West 126 145 6,000  Level Atlanta Center
10:46PM 34.2447 -82.7597 247° West 126 145 6,000  Level Atlanta Center
10:47PM 34.2347 -82.7975 252° West 126 145 6,000  Level Atlanta Center
10:48PM 34.2225 -82.8356 249° West 126 145 6,000  Level Atlanta Center
10:49PM 34.2103 -82.8708 247° West 126 145 6,000 -180 Level Atlanta Center
10:50PM 34.1981 -82.9086 249° West 126 145 5,700 -480 Descending Atlanta Center
10:51PM 34.1881 -82.9489 253° West 131 151 5,100 -600 Descending Atlanta Center
10:52PM 34.1758 -82.9917 251° West 131 151 4,600 -600 Descending Atlanta Center
10:53PM 34.1639 -83.0397 253° West 137 158 4,000 -360 Descending Atlanta Center
10:54PM 34.1517 -83.0875 253° West 150 173 3,900 -60 Descending Atlanta Center
10:55PM 34.1436 -83.1278 256° West 144 166 3,900 60 Level Atlanta Center
10:56PM 34.1314 -83.1706 251° West 144 166 4,100  Climbing Atlanta Center
10:57PM 34.1211 -83.2133 254° West 144 166 4,000 -120 Descending Atlanta Center
10:58PM 34.1111 -83.2611 256° West 144 166 3,900 -120 Descending Atlanta Center
10:59PM 34.0989 -83.3064 252° West 149 171 3,800 -60 Descending Atlanta Center
11:00PM 34.0928 -83.3489 260° West 144 166 3,800  Level Atlanta Center
11:01PM 34.0786 -83.3917 248° West 144 166 3,800  Level Atlanta Center
11:02PM 34.0744 -83.4344 263° West 139 160 3,900  Climbing Atlanta Center
11:03PM 34.0622 -83.4797 252° West 139 160 3,800  Descending Atlanta Center
11:04PM 34.0519 -83.5222 254° West 144 166 3,900  Climbing Atlanta Center
11:05PM 34.0458 -83.5750 262° West 144 166 3,800 -60 Descending Atlanta Center
11:06PM 34.0378 -83.6203 258° West 144 166 3,800  Level Atlanta Center
11:07PM 34.0294 -83.6653 257° West 144 166 3,800  Level Atlanta Center
11:08PM 34.0214 -83.7081 257° West 139 160 3,900 60 Climbing Atlanta Center
11:09PM 34.0131 -83.7531 257° West 139 160 4,000  Climbing Atlanta Center
11:10PM 34.0028 -83.7958 254° West 139 160 4,000 -60 Level Atlanta Center
11:11PM 33.9925 -83.8383 254° West 139 160 3,900  Descending Atlanta Center
11:12PM 33.9800 -83.8833 251° West 139 160 4,000  Climbing Atlanta Center
11:13PM 33.9667 -83.9167 244° Southwest 136 157 4,000  Level Atlanta TRACON
11:14PM 33.9667 -83.9500 270° West 136 157 4,000 -180 Level Atlanta TRACON
11:15PM 33.9500 -84.0000 248° West 137 158 3,700 -420 Descending Atlanta TRACON
11:16PM 33.9333 -84.0500 248° West 148 170 3,200 -420 Descending Atlanta TRACON
11:17PM 33.9167 -84.0833 239° Southwest 114 131 2,900 -120 Descending Atlanta TRACON
11:18PM 33.9167 -84.1167 270° West 103 119 3,000  Climbing Atlanta TRACON
11:19PM 33.9167 -84.1500 270° West 103 119 3,000  Level Atlanta TRACON
11:20PM 33.9000 -84.1833 239° Southwest 104 120 3,000 -60 Level Atlanta TRACON
11:21PM 33.9333 -84.2000 337° Northwest 107 123 2,900  Descending Atlanta TRACON
11:22PM 33.9500 -84.2167 320° Northwest 103 119 3,000 60 Climbing Atlanta TRACON
11:23PM 33.9833 -84.2167 360° North 88 101 3,100  Climbing Atlanta TRACON
11:24PM 34.0000 -84.2167 360° North 98 113 3,100 -60 Level Atlanta TRACON
11:25PM 34.0000 -84.2333 270° West 103 119 3,000 -240 Descending Atlanta TRACON
11:26PM 33.9667 -84.2500 203° Southwest 92 106 2,700 -300 Descending Atlanta TRACON
11:27PM 33.9500 -84.2667 220° Southwest 105 121 2,500 -420 Descending Atlanta TRACON
11:28PM 33.9167 -84.2833 203° Southwest 96 110 1,900 -600 Descending Atlanta TRACON
11:31PM 33.8756 -84.3020 270° West  Level Estimated
11:38PM 33.8756 -84.3020 270° West  Level Estimated